Delta, CO

3:34 AM MDT on April 25, 2018 (GMT -0600)
Delta

Weather History for KAJZ - March, 2014

Change the Weather History Date:

Monday, March 10, 2014

  Actual Average (KMTJ) Record (KMTJ)
Temperature  
Mean Temperature 50 °F -  
Max Temperature 70 °F 52 °F 68 °F (2014)
Min Temperature 30 °F 25 °F 17 °F (2006)
Degree Days  
Heating Degree Days 15    
Moisture  
Dew Point 18 °F    
Average Humidity 36    
Maximum Humidity 69    
Minimum Humidity 7    
Precipitation  
Precipitation 0.00 in - - ()
Sea Level Pressure  
Sea Level Pressure 30.04 in    
Wind  
Wind Speed 4 mph (ENE)    
Max Wind Speed 17 mph    
Max Gust Speed 24 mph    
Visibility 10 miles    
Events      
Averages and records for this station are not official NWS values.
T = Trace of Precipitation, MM = Missing Value Source: NWS Daily Summary

Daily Weather History Graph

Daily Weather History Graph

Search for Another Location

Airport or City:

Astronomy

Mar. 10, 2014 Rise Set
Actual Time 7:31 AM MDT 7:14 PM MDT
Civil Twilight 7:04 AM MDT 7:40 PM MDT
Nautical Twilight 6:33 AM MDT 8:11 PM MDT
Astronomical Twilight 6:02 AM MDT 8:42 PM MDT
Moon 2:03 PM MDT (3/10) 3:42 AM MDT (3/10)
Length of Visible Light 12h 36m
Length of Day
11h 43m
Waxing Gibbous, 70% of the Moon is Illuminated
Mar 10
Waxing Gibbous
Mar 16
Full
Mar 23
Last Quarter
Mar 30
New
Apr 7
First Quarter

Hourly Weather History & Observations

Time (MDT) Temp. Windchill Dew Point Humidity Pressure Visibility Wind Dir Wind Speed Gust Speed Precip Events Conditions
12:15 AM 40.3 °F - 25.9 °F 56% 30.27 in 10.0 mi Calm Calm - N/A   Clear
12:35 AM 41.2 °F 39.2 °F 25.9 °F 55% 30.27 in 10.0 mi ESE 3.5 mph - N/A   Clear
12:55 AM 36.1 °F 31.4 °F 23.2 °F 59% 30.27 in 10.0 mi NE 5.8 mph - N/A   Clear
1:15 AM 36.5 °F 33.9 °F 21.6 °F 55% 30.27 in 10.0 mi ENE 3.5 mph - N/A   Clear
1:35 AM 36.5 °F - 22.6 °F 57% 30.26 in 10.0 mi Calm Calm - N/A   Clear
2:15 AM 34.5 °F 29.4 °F 21.6 °F 59% 30.26 in 10.0 mi ENE 5.8 mph - N/A   Clear
2:35 AM 33.1 °F 27.7 °F 22.8 °F 66% 30.25 in 10.0 mi NE 5.8 mph - N/A   Clear
2:55 AM 36.3 °F 29.5 °F 21.9 °F 56% 30.24 in 10.0 mi ENE 9.2 mph - N/A   Clear
3:15 AM 36.0 °F 29.0 °F 21.2 °F 55% 30.23 in 10.0 mi ENE 9.2 mph - N/A   Clear
3:35 AM 36.1 °F 30.6 °F 22.3 °F 57% 30.23 in 10.0 mi ENE 6.9 mph - N/A   Clear
5:15 AM 34.3 °F 30.2 °F 21.4 °F 59% 30.22 in 10.0 mi NE 4.6 mph - N/A   Clear
5:55 AM 30.7 °F 26.0 °F 21.6 °F 69% 30.21 in 10.0 mi ENE 4.6 mph - N/A   Clear
6:15 AM 31.8 °F 26.2 °F 21.4 °F 65% 30.21 in 10.0 mi NE 5.8 mph - N/A   Clear
6:35 AM 33.3 °F 28.9 °F 21.2 °F 61% 30.20 in 10.0 mi ENE 4.6 mph - N/A   Clear
6:55 AM 31.1 °F 27.7 °F 21.2 °F 67% 30.20 in 10.0 mi ESE 3.5 mph - N/A   Clear
7:35 AM 32.0 °F 27.5 °F 22.1 °F 67% 30.19 in 10.0 mi ENE 4.6 mph - N/A   Clear
8:15 AM 34.9 °F - 23.0 °F 62% 30.18 in 10.0 mi Calm Calm - N/A   Scattered Clouds
8:35 AM 35.8 °F - 23.4 °F 61% 30.18 in 10.0 mi Calm Calm - N/A   Scattered Clouds
8:55 AM 36.5 °F 33.9 °F 23.7 °F 60% 30.18 in 10.0 mi SE 3.5 mph - N/A   Scattered Clouds
9:35 AM 37.0 °F - 24.4 °F 60% 30.17 in 10.0 mi Calm Calm - N/A   Clear
9:55 AM 41.9 °F 39.0 °F 24.3 °F 50% 30.16 in 10.0 mi East 4.6 mph - N/A   Clear
10:15 AM 43.9 °F 41.3 °F 25.0 °F 47% 30.15 in 10.0 mi East 4.6 mph - N/A   Clear
10:35 AM 46.8 °F - 24.3 °F 41% 30.14 in 10.0 mi East 4.6 mph - N/A   Clear
10:55 AM 49.1 °F - 23.0 °F 36% 30.13 in 10.0 mi ENE 4.6 mph - N/A   Clear
11:15 AM 50.2 °F - 23.4 °F 35% 30.13 in 10.0 mi Calm Calm - N/A   Clear
11:35 AM 51.4 °F - 23.5 °F 34% 30.12 in 10.0 mi Calm Calm - N/A   Clear
11:55 AM 54.0 °F - 24.3 °F 32% 30.11 in 10.0 mi SE 3.5 mph - N/A   Clear
12:15 PM 56.1 °F - 24.3 °F 29% 30.09 in 10.0 mi Calm Calm - N/A   Clear
1:15 PM 58.5 °F - 22.5 °F 25% 30.05 in 10.0 mi Calm Calm - N/A   Clear
1:35 PM 59.9 °F - 22.1 °F 23% 30.03 in 10.0 mi Calm Calm - N/A   Clear
2:15 PM 61.7 °F - 13.6 °F 15% 30.00 in 10.0 mi Calm Calm - N/A   Clear
2:55 PM 63.7 °F - 16.7 °F 16% 29.96 in 10.0 mi ENE 4.6 mph - N/A   Scattered Clouds
3:15 PM 65.1 °F - 11.1 °F 12% 29.95 in 10.0 mi Calm Calm - N/A   Clear
3:35 PM 65.8 °F - 7.5 °F 10% 29.93 in 10.0 mi NNE 5.8 mph - N/A   Clear
4:35 PM 68.5 °F - 8.1 °F 9% 29.89 in 10.0 mi Calm Calm - N/A   Clear
4:55 PM 69.1 °F - 9.1 °F 10% 29.87 in 10.0 mi Calm Calm - N/A   Clear
5:35 PM 70.5 °F - 4.1 °F 7% 29.85 in 10.0 mi SSW 10.4 mph 17.3 mph N/A   Clear
5:55 PM 70.0 °F - 4.1 °F 8% 29.85 in 10.0 mi South 13.8 mph - N/A   Clear
6:15 PM 68.9 °F - 3.4 °F 8% 29.84 in 10.0 mi SSW 17.3 mph 24.2 mph N/A   Clear
6:35 PM 67.1 °F - 3.9 °F 8% 29.85 in 10.0 mi SW 16.1 mph 21.9 mph N/A   Clear
6:55 PM 64.6 °F - 4.8 °F 9% 29.85 in 10.0 mi SSW 12.7 mph - N/A   Clear
7:15 PM 61.9 °F - 6.8 °F 11% 29.85 in 10.0 mi SW 9.2 mph - N/A   Clear
7:35 PM 60.6 °F - 8.1 °F 12% 29.85 in 10.0 mi SW 10.4 mph - N/A   Clear
7:55 PM 59.2 °F - 8.6 °F 13% 29.86 in 10.0 mi WSW 5.8 mph - N/A   Clear
8:15 PM 58.6 °F - 8.8 °F 14% 29.86 in 10.0 mi SW 5.8 mph - N/A   Clear
8:35 PM 57.2 °F - 11.3 °F 16% 29.87 in 10.0 mi Calm Calm - N/A   Clear
8:55 PM 54.3 °F - 14.9 °F 21% 29.86 in 10.0 mi Calm Calm - N/A   Clear
9:15 PM 53.2 °F - 15.4 °F 22% 29.86 in 10.0 mi Calm Calm - N/A   Clear
9:35 PM 55.0 °F - 16.7 °F 22% 29.85 in 10.0 mi North 8.1 mph - N/A   Clear
9:55 PM 54.5 °F - 14.9 °F 21% 29.84 in 10.0 mi NNE 5.8 mph - N/A   Clear
10:15 PM 53.2 °F - 17.6 °F 25% 29.84 in 10.0 mi North 9.2 mph - N/A   Clear
10:35 PM 52.9 °F - 18.7 °F 26% 29.83 in 10.0 mi NNE 5.8 mph - N/A   Clear
10:55 PM 53.6 °F - 18.9 °F 26% 29.82 in 10.0 mi NNE 4.6 mph - N/A   Clear
11:15 PM 52.7 °F - 20.3 °F 28% 29.81 in 10.0 mi North 6.9 mph - N/A   Clear
11:55 PM 51.3 °F - 20.5 °F 30% 29.81 in 10.0 mi Calm Calm - N/A   Clear